STARLINK-35130

Last updated on Mon Oct 20 2025 00:02:06 GMT+0000 (Coordinated Universal Time)

1 65740U 25216G 25292.23764072 .00126724 00000+0 22480-2 0 9998 2 65740 53.1587 272.2629 0001473 97.3309 262.7868 15.49331742 4900
UTC large
Height (km)
Speed (km/s)
/
Latitude / Longitude
Inclination (degrees)
Orbital Period (minutes)
Azimuth
Elevation
Range (km)
Doppler Factor

Next 0 passes for location: London (51.5072 / 0.1276)

Sorry there are no passes over London.